This is the latest recevied weather packets stored in our database for station/object EA1HEH-13. If no packets are shown the sender has not sent any weather packets the latest 10 day(s).
| Time | Temp. | Humidity | Pressure | Rain* | Wind** | Luminosity | Snow |
|---|---|---|---|---|---|---|---|
| 1777734939 | 21.11° C | 29% | 933.9 hPa | - | - | - | - |
| 1777734339 | 21.11° C | 29% | 934.1 hPa | - | - | - | - |
| 1777733739 | 21.11° C | 30% | 934.1 hPa | - | - | - | - |
| 1777733139 | 20.56° C | 30% | 934.2 hPa | - | - | - | - |
| 1777732540 | 20.56° C | 32% | 934.2 hPa | - | - | - | - |
| 1777731939 | 20.56° C | 32% | 934.5 hPa | - | - | - | - |
| 1777731339 | 20.56° C | 32% | 934.7 hPa | - | - | - | - |
| 1777730739 | 20° C | 32% | 934.8 hPa | - | - | - | - |
| 1777730139 | 20° C | 33% | 934.9 hPa | - | - | - | - |
| 1777729539 | 20° C | 33% | 935 hPa | - | - | - | - |
| 1777728939 | 20° C | 34% | 935.1 hPa | - | - | - | - |
| 1777728339 | 20° C | 35% | 935.3 hPa | - | - | - | - |
| 1777727739 | 20° C | 36% | 935.3 hPa | - | - | - | - |
| 1777727139 | 19.44° C | 38% | 935.3 hPa | - | - | - | - |
| 1777726539 | 19.44° C | 38% | 935.5 hPa | - | - | - | - |
| 1777725939 | 19.44° C | 37% | 935.6 hPa | - | - | - | - |
| 1777725339 | 18.89° C | 38% | 935.7 hPa | - | - | - | - |
| 1777724739 | 18.89° C | 38% | 935.6 hPa | - | - | - | - |
| 1777724139 | 18.89° C | 38% | 935.8 hPa | - | - | - | - |
| 1777723539 | 18.33° C | 38% | 936.2 hPa | - | - | - | - |
| 1777722939 | 18.89° C | 37% | 936.6 hPa | - | - | - | - |
| 1777722339 | 18.89° C | 36% | 936.6 hPa | - | - | - | - |
| 1777721739 | 20° C | 36% | 936.5 hPa | - | - | - | - |
| 1777721139 | 20° C | 37% | 936.1 hPa | - | - | - | - |
| 1777720539 | 20° C | 38% | 936.1 hPa | - | - | - | - |
* Rain since midnight (hover to see other rain measurements)
** Current wind speed in m/s (hover to see current wind gust speed)